| time (UTC) | temp F | wind direction | speed MPH | gust MPH | rain 1hr in | rain 24hr in | rain mn in | humidity % | barometer mb |
| 20260502163040 | 58 | 212 | 0.0 | 2.0 | 0.00 | 0.00 | 0.00 | 59 | 1011.6 |
| 20260502161538 | 59 | 219 | 0.0 | 1.0 | 0.00 | 0.00 | 0.00 | 61 | 1011.8 |
| 20260502151537 | 57 | 51 | 0.0 | 4.0 | 0.00 | 0.00 | 0.00 | 64 | 1011.9 |
| 20260502123107 | 54 | 18 | 0.0 | 2.0 | 0.00 | 0.00 | 0.00 | 78 | 1012.1 |
| 20260502121531 | 53 | 8 | 0.0 | 3.0 | 0.00 | 0.00 | 0.00 | 80 | 1012.2 |
| 20260502120111 | 52 | 4 | 0.0 | 2.0 | 0.00 | 0.00 | 0.00 | 82 | 1012.1 |
| 20260502114549 | 52 | 255 | 0.0 | 2.0 | 0.00 | 0.00 | 0.00 | 84 | 1012.0 |
| 20260502113017 | 51 | 254 | 0.0 | 1.0 | 0.00 | 0.00 | 0.00 | 86 | 1012.0 |
| 20260502111557 | 50 | 205 | 0.0 | 0.0 | 0.00 | 0.00 | 0.00 | 87 | 1012.1 |
| 20260502110026 | 50 | 327 | 0.0 | 0.0 | 0.00 | 0.00 | 0.00 | 87 | 1012.1 |
| 20260502104607 | 50 | 327 | 0.0 | 0.0 | 0.00 | 0.00 | 0.00 | 86 | 1011.9 |
| 20260502103033 | 49 | 327 | 0.0 | 0.0 | 0.00 | 0.00 | 0.00 | 85 | 1011.7 |
| 20260502101502 | 49 | 327 | 0.0 | 0.0 | 0.00 | 0.00 | 0.00 | 85 | 1011.3 |
| 20260502100107 | 49 | 328 | 0.0 | 0.0 | 0.00 | 0.00 | 0.00 | 86 | 1011.3 |
| 20260502091527 | 49 | 327 | 0.0 | 0.0 | 0.00 | 0.00 | 0.00 | 86 | 1011.5 |
| 20260502090106 | 49 | 327 | 0.0 | 0.0 | 0.00 | 0.00 | 0.00 | 86 | 1011.6 |
| 20260502070047 | 51 | 161 | 0.0 | 3.0 | 0.00 | 0.00 | 0.00 | 83 | 1011.5 |
| 20260502064506 | 51 | 96 | 1.0 | 4.0 | 0.00 | 0.00 | 0.00 | 84 | 1011.8 |
| 20260502063052 | 51 | 95 | 1.0 | 4.0 | 0.00 | 0.00 | 0.00 | 85 | 1011.9 |
| 20260502061520 | 51 | 175 | 2.0 | 6.0 | 0.00 | 0.00 | 0.00 | 85 | 1011.9 |
| 20260502054540 | 51 | 360 | 1.0 | 6.0 | 0.00 | 0.00 | 0.00 | 85 | 1012.2 |
| 20260502053004 | 50 | 146 | 0.0 | 4.0 | 0.00 | 0.00 | 0.00 | 85 | 1012.5 |
| 20260502051546 | 50 | 52 | 1.0 | 4.0 | 0.00 | 0.00 | 0.00 | 84 | 1012.7 |
| 20260502050021 | 50 | 77 | 0.0 | 6.0 | 0.00 | 0.00 | 0.00 | 83 | 1012.8 |
| 20260502044608 | 50 | 107 | 0.0 | 5.0 | 0.00 | 0.00 | 0.00 | 83 | 1012.8 |
| 20260502043036 | 51 | 121 | 2.0 | 7.0 | 0.00 | 0.00 | 0.00 | 83 | 1012.6 |
| 20260502041508 | 51 | 125 | 1.0 | 8.0 | 0.00 | 0.00 | 0.00 | 82 | 1012.7 |
| 20260502040053 | 51 | 136 | 2.0 | 7.0 | 0.00 | 0.00 | 0.00 | 82 | 1012.6 |
| 20260502034524 | 51 | 88 | 2.0 | 7.0 | 0.00 | 0.00 | 0.00 | 82 | 1012.3 |
| 20260502033106 | 51 | 192 | 2.0 | 9.0 | 0.00 | 0.00 | 0.00 | 82 | 1012.1 |
| 20260502031538 | 51 | 110 | 3.0 | 8.0 | 0.00 | 0.00 | 0.00 | 82 | 1012.2 |
| 20260502030009 | 51 | 79 | 2.0 | 8.0 | 0.00 | 0.00 | 0.00 | 82 | 1012.4 |
| 20260502024549 | 51 | 126 | 2.0 | 6.0 | 0.00 | 0.00 | 0.00 | 82 | 1012.7 |
| 20260502023014 | 51 | 117 | 2.0 | 7.0 | 0.00 | 0.00 | 0.00 | 81 | 1013.1 |
| 20260502021600 | 51 | 150 | 1.0 | 8.0 | 0.00 | 0.00 | 0.00 | 81 | 1013.0 |
| 20260502020038 | 51 | 115 | 1.0 | 6.0 | 0.00 | 0.00 | 0.00 | 81 | 1013.0 |
| 20260502014505 | 51 | 163 | 2.0 | 7.0 | 0.00 | 0.01 | 0.00 | 82 | 1012.8 |
| 20260502013047 | 51 | 184 | 2.0 | 6.0 | 0.00 | 0.01 | 0.00 | 83 | 1012.7 |
| 20260502011516 | 51 | 63 | 2.0 | 8.0 | 0.00 | 0.01 | 0.00 | 83 | 1012.6 |
| 20260502010101 | 51 | 155 | 2.0 | 6.0 | 0.00 | 0.01 | 0.00 | 82 | 1012.5 |
| 20260502004532 | 51 | 215 | 3.0 | 6.0 | 0.00 | 0.01 | 0.00 | 81 | 1012.4 |
| 20260502003007 | 51 | 161 | 1.0 | 7.0 | 0.00 | 0.01 | 0.00 | 80 | 1012.3 |
| 20260502001556 | 51 | 111 | 0.0 | 7.0 | 0.00 | 0.01 | 0.00 | 79 | 1012.3 |
| 20260502000025 | 52 | 201 | 2.0 | 7.0 | 0.00 | 0.01 | 0.00 | 77 | 1012.3 |
| 20260501234612 | 52 | 84 | 2.0 | 7.0 | 0.00 | 0.01 | 0.00 | 75 | 1012.0 |
| 20260501233040 | 52 | 70 | 2.0 | 7.0 | 0.00 | 0.01 | 0.00 | 75 | 1011.8 |
| 20260501231513 | 53 | 150 | 2.0 | 7.0 | 0.00 | 0.01 | 0.00 | 74 | 1011.7 |
| 20260501230053 | 53 | 67 | 2.0 | 7.0 | 0.00 | 0.01 | 0.00 | 73 | 1011.7 |
| 20260501224527 | 53 | 77 | 1.0 | 5.0 | 0.00 | 0.01 | 0.00 | 73 | 1011.7 |
| 20260501223113 | 54 | 88 | 1.0 | 8.0 | 0.00 | 0.01 | 0.00 | 71 | 1011.7 |
| 20260501221543 | 54 | 130 | 2.0 | 7.0 | 0.00 | 0.01 | 0.00 | 72 | 1011.9 |
| 20260501220021 | 55 | 68 | 2.0 | 6.0 | 0.00 | 0.01 | 0.00 | 70 | 1012.0 |
| 20260501214556 | 55 | 98 | 2.0 | 7.0 | 0.00 | 0.01 | 0.00 | 70 | 1012.1 |
| 20260501213025 | 56 | 211 | 3.0 | 8.0 | 0.00 | 0.01 | 0.00 | 69 | 1012.0 |
| 20260501211609 | 56 | 27 | 3.0 | 8.0 | 0.00 | 0.01 | 0.00 | 70 | 1012.0 |
| 20260501210031 | 56 | 213 | 2.0 | 7.0 | 0.00 | 0.01 | 0.00 | 68 | 1012.0 |
| 20260501204611 | 57 | 55 | 1.0 | 6.0 | 0.00 | 0.01 | 0.00 | 69 | 1011.8 |
| 20260501203054 | 56 | 162 | 3.0 | 8.0 | 0.00 | 0.01 | 0.00 | 67 | 1011.9 |
| 20260501201507 | 57 | 122 | 3.0 | 9.0 | 0.00 | 0.01 | 0.00 | 64 | 1011.9 |
| 20260501200052 | 58 | 98 | 2.0 | 9.0 | 0.00 | 0.01 | 0.00 | 66 | 1012.0 |
| 20260501194521 | 59 | 158 | 4.0 | 7.0 | 0.00 | 0.01 | 0.00 | 63 | 1012.0 |
| 20260501193104 | 59 | 125 | 4.0 | 9.0 | 0.00 | 0.01 | 0.00 | 60 | 1012.2 |
| 20260501191533 | 60 | 155 | 2.0 | 9.0 | 0.00 | 0.01 | 0.00 | 61 | 1012.3 |
| 20260501190005 | 59 | 93 | 3.0 | 9.0 | 0.00 | 0.01 | 0.00 | 60 | 1012.4 |
| 20260501184605 | 60 | 176 | 1.0 | 10.0 | 0.00 | 0.01 | 0.00 | 61 | 1012.4 |
| 20260501183018 | 61 | 212 | 3.0 | 8.0 | 0.00 | 0.01 | 0.00 | 52 | 1012.6 |
| 20260501181554 | 62 | 62 | 3.0 | 7.0 | 0.00 | 0.01 | 0.00 | 52 | 1012.7 |
| 20260501180027 | 63 | 129 | 2.0 | 8.0 | 0.00 | 0.01 | 0.00 | 50 | 1012.5 |
| 20260501174612 | 64 | 91 | 0.0 | 7.0 | 0.00 | 0.01 | 0.00 | 49 | 1012.6 |
| 20260501173056 | 63 | 20 | 2.0 | 5.0 | 0.00 | 0.01 | 0.00 | 46 | 1012.7 |
| 20260501171514 | 61 | 77 | 1.0 | 8.0 | 0.00 | 0.01 | 0.00 | 62 | 1012.9 |